{"data":{"norad_id":53202,"intl_designator":"2022-084P","name":"STARLINK-4411","alt_names":[],"object_type":"PAYLOAD","status":"ACTIVE","operator":null,"country":"US","launch_date":"2022-07-22","launch_site_code":"AFWTR","launch_vehicle":null,"mission":null,"orbit_class":"UNKNOWN","rcs_meters":null,"size_class":null,"mass_kg":null,"dimensions":null,"purposes":["comms"],"wikipedia_slug":null,"has_3d_model":false,"image_url":null,"decayed_at":null,"tle_current":{"epoch":"2026-09-20T00:00:02.998944Z","epoch_age_seconds":115449,"freshness":"FRESH","line1":"1 53202U 22084P   26263.00003471  .00054849  00000+0  16908-2 0  9997","line2":"2 53202  97.2845 318.6486 0001394  86.5998   0.3255 15.33410167  5817","mean_motion":15.33410167,"eccentricity":0.0001394,"inclination_deg":97.2845,"raan_deg":318.6486,"arg_perigee_deg":86.5998,"mean_anomaly_deg":0.3255,"bstar":0.0016908,"rev_number":581,"period_min":93.908337833526,"perigee_km":464.6927914771,"apogee_km":466.60083840471,"semimajor_km":6843.7838149409,"source":"CELESTRAK","updated_at":"2026-09-20T09:00:40.191170Z"}}}